Regional Weather Roundup
Issued by NWS

Home | Current Version | Previous Version | Graphics & Text | Print | Product List | Glossary On
Versions: 1 2 3 4 5 6 7 8 9 10 11 12 13 14 15 16 17 18 19 20 21 22 23 24 25 26 27 28 29 30 31 32 33 34 35 36 37 38 39 40 41 42 43 44 45 46 47 48 49 50
000
ASUS43 KDTX 060710
RWRMI
MICHIGAN HOURLY REGIONAL WEATHER ROUNDUP
NATIONAL WEATHER SERVICE DETROIT/PONTIAC MI
200 AM EST FRI MAR 06 2015

NOTE: "FAIR" INDICATES FEW OR NO CLOUDS BELOW 12,000 FEET WITH NO
SIGNIFICANT WEATHER AND/OR OBSTRUCTION TO VISIBILITY.

MIZ047>049-052>055-059>063-066>070-074>076-081>083-060800-
SOUTHEAST LOWER MICHIGAN

CITY           SKY/WX    TMP DP  RH WIND       PRES   REMARKS
ADRIAN         PTCLDY     1  -4  79 CALM      30.50F
ALMA           PTCLDY    -4  -8  86 S5        30.46S
ANN ARBOR      MOCLDY    -4  -9  79 CALM      30.48F
BAD AXE        PTCLDY    -3  -7  82 SW5       30.46R
DETROIT CITY   PTCLDY    11  -1  58 W5        30.51R
DETROIT        PTCLDY     8  -1  66 CALM      30.51S
FLINT          PTCLDY    -3  -8  79 SW3       30.47F
GROSSE ILE     PTCLDY     5  -4  66 CALM      30.49F
HILLSDALE      PTCLDY     0  -4  83 CALM      30.45R
HOWELL         MOCLDY     3  -2  79 CALM      30.46S

CITY           SKY/WX    TMP DP  RH WIND       PRES   REMARKS
JACKSON        PTCLDY    -2  -6  83 SW3       30.47S
LAMBERTVILLE   PTCLDY     5   0  78 CALM      30.51S
LANSING        MOCLDY     5   0  79 CALM      30.48S
LAPEER         NOT AVBL
MASON          PTCLDY    -3  -6  85 CALM      30.47R
MONROE         PTCLDY     0  -6  78 CALM      30.49R
MT. CLEMENS    PTCLDY     2  -5  72 NW2       30.48R
PONTIAC        PTCLDY    -1  -6  79 CALM      30.45S
PORT HOPE        N/A      4  -5  66 SW6       30.44S
PORT HURON     PTCLDY   -11 -15  84 CALM      30.50R
TRI CITIES     PTCLDY     5  -2  72 S7        30.47S
YPSILANTI      MOCLDY     4  -5  66 N7        30.50S
$$
MIZ043>046-050>051-056>058-064>065-071>073-077>080-060800-
SOUTHWEST LOWER MICHIGAN

CITY           SKY/WX    TMP DP  RH WIND       PRES   REMARKS
BATTLE CREEK   MOCLDY     4   0  83 SW8       30.48R
BENTON HARBOR  CLOUDY     8   2  76 S6        30.51S
BIG RAPIDS     MOCLDY    -2  -5  88 CALM      30.40S
COLDWATER      MOCLDY    -1  -4  85 CALM      30.49R
HOLLAND        CLOUDY     4  -1  80 S5        30.48F
GRAND RAPIDS   MOCLDY     3  -2  79 S8        30.46S
KALAMAZOO      PTCLDY     4   0  83 SW7       30.49R
MARSHALL         N/A     -4  -8  82 CALM      30.48R
MUSKEGON       CLOUDY    16   6  65 SW8       30.46F
$$
MIZ016>042-060800-
NORTHERN LOWER MICHIGAN

CITY           SKY/WX    TMP DP  RH WIND       PRES   REMARKS
ALPENA         MOCLDY   -12 -18  74 CALM      30.39F
BEAVER ISLAND  CLEAR     10   2  71 SW8       30.32F
BELLAIRE       CLEAR     -3  -7  84 CALM      30.39S
CADILLAC       PTCLDY     0  -3  87 S3        30.33F
CHARLEVOIX     CLEAR      7   1  77 CALM      30.38F
FRANKFORT      MOSUNNY   16   5  63 W9G16     30.38F
GAYLORD        CLEAR      2  -2  83 SW7       30.30F
GRAYLING       PTCLDY     2  -3  79 S5        30.35S
HARBOR SPRINGS CLEAR      3  -1  81 W5        30.34S
HOUGHTON LAKE  PTCLDY     2  -3  80 SW8       30.37S
MANISTEE       PTCLDY     3  -2  78 CALM      30.40F
OSCODA         PTCLDY     0  -5  80 S6        30.42F
PELLSTON       CLEAR     -7 -11  83 SE3       30.34F
TRAVERSE CITY  CLEAR      3  -2  79 VRB3      30.37F
$$
MIZ007>008-015-060800-
EASTERN UPPER MICHIGAN

CITY           SKY/WX    TMP DP  RH WIND       PRES   REMARKS
KINROSS        PTCLDY     1   0  92 SW5       30.30S
MACKINAC ISLAN PTCLDY     5  -1  77 S10       30.31F WCI -10
NEWBERRY       PTCLDY    -1  -3  91 SW8       30.27S
S. S. MARIE    PTCLDY    -4 -10  75 E3        30.30F
$$
MIZ004>006-011>014-085-060800-
CENTRAL UPPER MICHIGAN

CITY           SKY/WX    TMP DP  RH WIND       PRES   REMARKS
MANISTIQUE     CLEAR      6  -5  60 W5        30.30F
ESCANABA       CLEAR      3  -9  55 W8        30.32F
MENOMINEE      PTCLDY     3  -9  55 SW7       30.35S
SAWYER-GWINN   CLEAR      2 -11  55 SW10      30.21F WCI -14
$$
MIZ001>003-009>011-084-060800-
WESTERN UPPER MICHIGAN

CITY           SKY/WX    TMP DP  RH WIND       PRES   REMARKS
IRON MOUNTAIN  CLEAR      3 -10  54 SW9       30.24F
HOUGHTON         N/A      5 -10  50 SW8       30.15F
COPPER HARBOR    N/A      6  -9  50 W8        30.17F
IRONWOOD       CLEAR      5  -2  72 SW13      30.15F WCI -12
$$

ABBREVIATIONS USED IN REMARKS
   TC - TEMPERATURE IN CELSIUS
  WCI - WIND CHILL INDEX
   HX - HEAT INDEX
  VSB - VISIBILITY



USA.gov is the U.S. government's official web portal to all federal, state and local government web resources and services.